Weather History for Rhodes, Greece

Change the Weather History Date:

Saturday, November 30, 2013

  Actual Average Record
Temperature  
Mean Temperature 60 °F -  
Max Temperature 63 °F 62 °F 71 °F (2010)
Min Temperature 57 °F 51 °F 51 °F (2001)
Degree Days  
Heating Degree Days 5    
Growing Degree Days 10 (Base 50)    
Moisture  
Dew Point 46 °F    
Average Humidity 62    
Maximum Humidity 82    
Minimum Humidity 37    
Precipitation  
Precipitation 0.00 in 0.19 in - ()
Sea Level Pressure  
Sea Level Pressure 30.10 in    
Wind  
Wind Speed 6 mph ()    
Max Wind Speed 13 mph    
Max Gust Speed -    
Visibility 6.2 miles    
Events      
Averages and records for this station are not official NWS values.
T = Trace of Precipitation, MM = Missing Value Source: Averaged Metar Reports

Daily Weather History Graph

Daily Weather History Graph

Search for Another Location

Airport:

Trip Planner

Search our weather history database for the weather conditions in past years. The results will help you decide how hot, cold, wet, or windy it might be!

Date:

Astronomy

Nov. 30, 2013 Rise Set
Actual Time 6:59 AM EET 4:52 PM EET
Civil Twilight 6:31 AM EET 5:20 PM EET
Nautical Twilight 5:59 AM EET 5:52 PM EET
Astronomical Twilight 5:28 AM EET 6:23 PM EET
Moon 3:53 AM EET 2:59 PM EET
Length of Visible Light 10h 49m
Length of Day
9h 52m
Waning Crescent, 9% of the Moon is Illuminated
Nov 30
Waning Crescent
Dec 3
New
Dec 9
First Quarter
Dec 17
Full
Dec 25
Last Quarter

Hourly Weather History & Observations

Time (EET) Temp. Dew Point Humidity Pressure Visibility Wind Dir Wind Speed Gust Speed Precip Events Conditions
12:20 AM 57.2 °F 42.8 °F 59% 30.12 in 6.2 mi WNW 9.2 mph - N/A   Partly Cloudy
12:50 AM 57.2 °F 42.8 °F 59% 30.09 in 6.2 mi WNW 8.1 mph - N/A   Partly Cloudy
1:20 AM 57.2 °F 42.8 °F 59% 30.09 in 6.2 mi WNW 8.1 mph - N/A   Partly Cloudy
1:50 AM 57.2 °F 41.0 °F 55% 30.09 in 6.2 mi WNW 8.1 mph - N/A   Partly Cloudy
2:00 AM 58 °F 41 °F 42% 30.12 in 6 mi WNW 8.1 mph - -   Scattered Clouds
2:20 AM 57.2 °F 41.0 °F 55% 30.09 in 6.2 mi WNW 8.1 mph - N/A   Partly Cloudy
2:50 AM 57.2 °F 41.0 °F 55% 30.09 in 6.2 mi West 10.4 mph - N/A   Partly Cloudy
3:20 AM 57.2 °F 41.0 °F 55% 30.09 in 6.2 mi West 9.2 mph - N/A   Partly Cloudy
3:50 AM 57.2 °F 41.0 °F 55% 30.09 in 6.2 mi WNW 8.1 mph - N/A   Partly Cloudy
4:20 AM 57.2 °F 41.0 °F 55% 30.09 in 6.2 mi WNW 8.1 mph - N/A   Partly Cloudy
4:50 AM 57.2 °F 41.0 °F 55% 30.09 in 6.2 mi WNW 6.9 mph - N/A   Partly Cloudy
5:20 AM 57.2 °F 41.0 °F 55% 30.09 in 6.2 mi WNW 6.9 mph - N/A   Partly Cloudy
5:50 AM 57.2 °F 41.0 °F 55% 30.09 in 6.2 mi West 8.1 mph - N/A   Scattered Clouds
6:20 AM 57.2 °F 41.0 °F 55% 30.09 in 6.2 mi West 6.9 mph - N/A   Scattered Clouds
6:50 AM 57.2 °F 41.0 °F 55% 30.09 in - Variable 3.5 mph - N/A   Clear
7:20 AM 57.2 °F 41.0 °F 55% 30.09 in - SW 3.5 mph - N/A   Clear
7:50 AM 59.0 °F 41.0 °F 51% 30.09 in - Variable 3.5 mph - N/A   Clear
8:00 AM 60 °F 41 °F 37% 30.12 in 6 mi 3.5 mph - -   Scattered Clouds
8:20 AM 59.0 °F 41.0 °F 51% 30.09 in - Variable 2.3 mph - N/A   Clear
8:50 AM 57.2 °F 46.4 °F 67% 30.12 in - Variable 1.2 mph - N/A   Clear
9:20 AM 57.2 °F 46.4 °F 67% 30.12 in - SW 4.6 mph - N/A   Clear
9:50 AM 59.0 °F 44.6 °F 59% 30.12 in - SSW 4.6 mph - N/A   Clear
10:20 AM 59.0 °F 44.6 °F 59% 30.12 in 6.2 mi Variable 2.3 mph - N/A   Scattered Clouds
10:50 AM 59.0 °F 44.6 °F 59% 30.12 in 6.2 mi Variable 2.3 mph - N/A   Scattered Clouds
11:20 AM 59.0 °F 44.6 °F 59% 30.12 in - Variable 3.5 mph - N/A   Clear
11:50 AM 59.0 °F 44.6 °F 59% 30.12 in - NE 9.2 mph - N/A   Clear
12:20 PM 59.0 °F 44.6 °F 59% 30.12 in - NE 10.4 mph - N/A   Clear
12:50 PM 59.0 °F 46.4 °F 63% 30.09 in 6.2 mi NE 8.1 mph - N/A   Mostly Cloudy
1:20 PM 59.0 °F 46.4 °F 63% 30.09 in 6.2 mi NE 8.1 mph - N/A   Mostly Cloudy
1:50 PM 60.8 °F 46.4 °F 59% 30.09 in 6.2 mi NE 6.9 mph - N/A   Mostly Cloudy
2:00 PM 60 °F 47 °F 51% 30.11 in 6 mi NE 6.9 mph - -   Scattered Clouds
2:20 PM 60.8 °F 46.4 °F 59% 30.09 in 6.2 mi NE 6.9 mph - N/A   Mostly Cloudy
2:50 PM 60.8 °F 48.2 °F 63% 30.09 in 6.2 mi East 5.8 mph - N/A   Mostly Cloudy
3:20 PM 60.8 °F 48.2 °F 63% 30.09 in 6.2 mi ENE 6.9 mph - N/A   Mostly Cloudy
3:50 PM 62.6 °F 46.4 °F 55% 30.09 in 6.2 mi East 5.8 mph - N/A   Mostly Cloudy
4:20 PM 62.6 °F 46.4 °F 55% 30.09 in 6.2 mi East 4.6 mph - N/A   Mostly Cloudy
4:50 PM 60.8 °F 50.0 °F 68% 30.09 in 6.2 mi East 4.6 mph - N/A   Mostly Cloudy
5:20 PM 60.8 °F 50.0 °F 68% 30.09 in 6.2 mi Variable 3.5 mph - N/A   Mostly Cloudy
5:50 PM 59.0 °F 50.0 °F 72% 30.09 in 6.2 mi Variable 3.5 mph - N/A   Mostly Cloudy
6:20 PM 59.0 °F 50.0 °F 72% 30.09 in 6.2 mi ESE 6.9 mph - N/A   Mostly Cloudy
6:50 PM 62.6 °F 53.6 °F 72% 30.09 in 6.2 mi East 4.6 mph - N/A   Mostly Cloudy
7:20 PM 62.6 °F 53.6 °F 72% 30.09 in 6.2 mi East 6.9 mph - N/A   Mostly Cloudy
7:50 PM 62.6 °F 53.6 °F 72% 30.12 in 6.2 mi Variable 3.5 mph - N/A   Mostly Cloudy
8:00 PM 62 °F 54 °F 67% 30.13 in 6 mi 3.5 mph - -   Scattered Clouds
8:20 PM 62.6 °F 53.6 °F 72% 30.12 in 6.2 mi ESE 4.6 mph - N/A   Mostly Cloudy
8:50 PM 62.6 °F 53.6 °F 72% 30.12 in 6.2 mi ESE 12.7 mph - N/A   Mostly Cloudy
9:20 PM 62.6 °F 53.6 °F 72% 30.12 in 6.2 mi ESE 9.2 mph - N/A   Mostly Cloudy
9:50 PM 59.0 °F 53.6 °F 82% 30.12 in 6.2 mi ESE 10.4 mph - N/A   Mostly Cloudy
10:20 PM 59.0 °F 53.6 °F 82% 30.12 in 6.2 mi ESE 11.5 mph - N/A   Mostly Cloudy
10:50 PM 59.0 °F 53.6 °F 82% 30.15 in 6.2 mi East 8.1 mph - N/A   Mostly Cloudy
11:20 PM 59.0 °F 53.6 °F 82% 30.15 in 6.2 mi ESE 4.6 mph - N/A   Mostly Cloudy
11:50 PM 59.0 °F 53.6 °F 82% 30.15 in 6.2 mi East 10.4 mph - N/A   Mostly Cloudy